星链-3538 (STARLINK-3538 )

导读 | 星芒AI

STARLINK-3538 是 SpaceX Starlink 项目中的一颗低轨通信卫星,属于第三代星链卫星(v1.5 或 v2 架构)。该卫星于 2023 年发射,旨在为全球提供高速互联网服务。它运行在约 550 公里的轨道高度,具备先进通信技术,支持更低延迟和更高带宽。STARLINK-3538 与数千颗其他星链卫星共同构建星座,提升网络覆盖与稳定性,尤其服务于偏远地区。该卫星采用可再生太阳能供电,并具备自主避障能力,以减少太空碎片风险。

基本信息
目录编号:
51996
目录名称:
STARLINK-3538
国际标识:
2022-025AS
轨道中心:
EARTH
卫星名称:
星链-3538
卫星全名:
星链-3538 (STARLINK-3538 )
卫星状态:
在轨 (已飞行1382 天)
发射日期:
2022-03-09 UTC
国别 :
美国 (US)
星等 :
--
轨道信息
数据来源 国际轨道数据
星历时间: 2025-12-19T17:04:50+0800
1天前
查看轨道信息
半长轴: 6917.891km
偏心率: 0.0001055
轨道倾角: 53.218°
近地点辐角 78.684°
升交点赤经 19.654°
平近点角 281.427°
近地点: 539.024km
远地点: 540.484km
周期: 95.438分钟
每日圈数: 15.088366
详细信息
固有亮度:
5
最大亮度:
2.5
卫星平台:
Starlink v1.5
覆盖范围:
全球
运营商:
太空探索技术公司
运营商所在国:
美国
制造商(研发单位):
太空探索技术公司
制造商所在国:
美国
使用方式:
暂无
卫星简介
星链(Starlink)计划是由太空探索技术公司(SpaceX)提出的一个巨型低轨卫星互联网星座项目,计划在2019年至2024年间在太空搭建由约1.2万颗卫星组成的“星链”网络,其中1584颗将部署在地球上空550千米处的近地轨道,并从2020年开始工作。该卫星仍在工作。
2D轨道图
3D轨道图
轨道高度分析图
轨道倾角分析图
轨道综合分析图
查看轨道综合分析图